COSMOS 2251 DEB, 34274

Orbit data source: Space-Track

COSMOS 2251 DEB, 34274 is space debris in LEO originally from a launch on Wed, 16 Jun 1993 UTC launched from the Plesetsk Missile And Space Complex (PKMTR). The debris from Iridium 33, an American commercial communications satellite, has been tracked extensively since its accidental collision with the defunct Russian satellite Cosmos 2251 in 2009. This event, occurring at high speed in low Earth orbit (LEO), generated thousands of pieces of space debris, significantly increasing the risk of further collisions. The Iridium 33 debris cloud has impacted space traffic management and orbital debris mitigation strategies, making it a subject of ongoing study in space situational awareness.

Loading next visibility...
Identifier
34274, 1993-036LU
Orbit
LEO
Country
Flag of CISCIS
Related business
Manufacturer
Unknown
Mission
Spacecraft
Bus & Motor
Unknown
Mass
Unknown
Launch date (UTC)
1993-06-16 (33 years ago)
Launch vehicle
Unknown
Launch site
Plesetsk Missile And Space Complex (PKMTR)
Object type
Payload
Rocket body
Debris
Shape & HBR
Unknown shape, 0.1 m
Radar Cross Section
Small (<0.1 m²)

Expand to show TLE details & history
Last TLE update: 9 hours ago

TLE from 9 hours ago
0 COSMOS 2251 DEB
1 34274U 93036LU  26035.83626139  .00007427  00000-0  13686-2 0  9991
2 34274  74.0055 324.2810 0019979  98.7674 322.5960 14.65571535894683
Epoch: 2026-02-04T20:04Z
TLE epoch observation values (Epoch: 2026-02-04T20:04:12.984Z)
Latitude
57.5225°
Longitude
-85.16138°
Altitude
673.375 km
Speed
7.532 km/s
True Right ascension
23h 23m 33s
True Declination
57° 21' 53"
Sunlit
Object was in daylight at epoch
Visualization orbit readout
Latitude
Unknown
Longitude
Unknown
Altitude
Unknown
Speed
Unknown
Apparent Right ascension
Unknown
Apparent Declination
Unknown
Sunlit
N/A
Visualization observer readout
Local Sidereal Time
07:12:14
Azimuth
Unknown
Elevation
Unknown
Doppler factor
Unknown
Orbital elements
Apogee altitude
686.922 km
Perigee altitude
658.748 km
Semi-major axis
7,050.972 km
Eccentricity
0.002
Inclination
74.0055°
RAAN
324.281°
Arg. of periapsis
98.7674°
True anomaly
322.45666°
Mean anomaly
322.596°
Eccentric anomaly
322.52636°
Mean motion
3.66581 °/min
Orbital period
98.2 mins
BSTAR
0.0013686
Loading maneuver chart data...
Computing Atmospheric mass density...

Documentation

Showing up to 5 results
|